Weather History for Kendall, FL

Change the Weather History Date:

Wednesday, February 20, 2013

  Actual Average Record
Temperature  
Mean Temperature 72 °F -  
Max Temperature 81 °F 80 °F 86 °F (1992)
Min Temperature 64 °F 61 °F 47 °F (1993)
Cooling Degree Days 8    
Growing Degree Days 22 (Base 50)    
Moisture  
Dew Point 65 °F    
Average Humidity 81    
Maximum Humidity 100    
Minimum Humidity 54    
Precipitation  
Precipitation 0.00 in - - ()
Sea Level Pressure  
Sea Level Pressure 30.07 in    
Wind  
Wind Speed 4 mph (East)    
Max Wind Speed 14 mph    
Max Gust Speed -    
Visibility 10 miles    
Events      
Averages and records for this station are not official NWS values.
T = Trace of Precipitation, MM = Missing Value Source: NWS Daily Summary

Daily Weather History Graph

Daily Weather History Graph

Search for Another Location

Airport:

Trip Planner

Search our weather history database for the weather conditions in past years. The results will help you decide how hot, cold, wet, or windy it might be!

Date:

Astronomy

Feb. 20, 2013 Rise Set
Actual Time 6:52 AM EST 6:18 PM EST
Civil Twilight 6:29 AM EST 6:41 PM EST
Nautical Twilight 6:02 AM EST 7:08 PM EST
Astronomical Twilight 5:35 AM EST 7:35 PM EST
Moon 1:55 PM EST (2/20) 2:54 AM EST (2/20)
Length of Visible Light 12h 12m
Length of Day
11h 25m
Waxing Gibbous, 76% of the Moon is Illuminated
Feb 20
Waxing Gibbous
Feb 25
Full
Mar 4
Last Quarter
Mar 11
New
Mar 19
First Quarter

Hourly Weather History & Observations

Time (EST) Temp. Heat Index Dew Point Humidity Pressure Visibility Wind Dir Wind Speed Gust Speed Precip Events Conditions
12:53 AM 64.0 °F - 63.0 °F 96% 30.10 in 10.0 mi Calm Calm - N/A   Mostly Cloudy
1:53 AM 64.0 °F - 64.0 °F 100% 30.08 in 10.0 mi Calm Calm - N/A   Mostly Cloudy
2:53 AM 64.0 °F - 64.0 °F 100% 30.08 in 10.0 mi Calm Calm - N/A   Partly Cloudy
3:53 AM 64.9 °F - 64.9 °F 100% 30.06 in 10.0 mi Calm Calm - N/A   Overcast
4:44 AM 66.2 °F - 64.4 °F 94% 30.08 in 10.0 mi North 3.5 mph - N/A   Overcast
4:53 AM 68.0 °F - 66.0 °F 93% 30.08 in 10.0 mi Calm Calm - N/A   Overcast
5:14 AM 66.2 °F - 66.2 °F 100% 30.08 in 10.0 mi Calm Calm - N/A   Mostly Cloudy
5:53 AM 66.0 °F - 64.9 °F 96% 30.06 in 10.0 mi Calm Calm - N/A   Partly Cloudy
6:11 AM 64.4 °F - 64.4 °F 100% 30.09 in 10.0 mi Calm Calm - N/A   Mostly Cloudy
6:53 AM 64.9 °F - 64.0 °F 97% 30.10 in 9.0 mi Calm Calm - N/A   Mostly Cloudy
7:53 AM 69.1 °F - 66.0 °F 90% 30.11 in 10.0 mi NE 4.6 mph - N/A   Partly Cloudy
8:53 AM 73.0 °F - 64.0 °F 73% 30.12 in 10.0 mi NE 9.2 mph - N/A   Scattered Clouds
9:53 AM 75.9 °F - 62.1 °F 62% 30.12 in 10.0 mi NE 9.2 mph - N/A   Partly Cloudy
10:53 AM 78.8 °F - 62.6 °F 57% 30.11 in 10.0 mi NE 6.9 mph - N/A   Partly Cloudy
11:53 AM 79.0 °F - 61.0 °F 54% 30.09 in 10.0 mi East 6.9 mph - N/A   Scattered Clouds
12:53 PM 79.0 °F - 61.0 °F 54% 30.08 in 10.0 mi NNE 6.9 mph - N/A   Overcast
1:53 PM 81.0 °F 83.0 °F 66.0 °F 60% 30.05 in 10.0 mi East 13.8 mph - N/A   Mostly Cloudy
2:53 PM 78.1 °F - 66.0 °F 66% 30.04 in 10.0 mi ESE 12.7 mph - N/A   Mostly Cloudy
3:06 PM 78.8 °F - 66.2 °F 65% 30.04 in 10.0 mi ESE 13.8 mph - N/A   Mostly Cloudy
3:22 PM 77.0 °F - 66.2 °F 69% 30.04 in 10.0 mi ESE 13.8 mph - N/A   Mostly Cloudy
3:53 PM 75.9 °F - 64.9 °F 69% 30.03 in 10.0 mi East 12.7 mph - N/A   Mostly Cloudy
4:53 PM 75.9 °F - 66.0 °F 71% 30.02 in 10.0 mi ESE 11.5 mph - N/A   Mostly Cloudy
5:32 PM 73.4 °F - 66.2 °F 78% 30.03 in 10.0 mi East 13.8 mph - N/A   Mostly Cloudy
5:53 PM 73.0 °F - 66.9 °F 81% 30.04 in 10.0 mi East 11.5 mph - N/A   Mostly Cloudy
6:13 PM 73.4 °F - 66.2 °F 78% 30.04 in 10.0 mi East 11.5 mph - N/A   Mostly Cloudy
6:20 PM 73.4 °F - 66.2 °F 78% 30.04 in 10.0 mi East 11.5 mph - N/A   Mostly Cloudy
6:35 PM 71.6 °F - 66.2 °F 83% 30.05 in 10.0 mi East 9.2 mph - N/A   Overcast
6:53 PM 73.0 °F - 66.9 °F 81% 30.06 in 10.0 mi ENE 8.1 mph - N/A   Overcast
7:53 PM 73.0 °F - 66.9 °F 81% 30.07 in 10.0 mi ENE 6.9 mph - N/A   Overcast
8:53 PM 72.0 °F - 66.9 °F 84% 30.07 in 10.0 mi East 4.6 mph - N/A   Overcast
9:53 PM 71.1 °F - 66.0 °F 84% 30.09 in 10.0 mi East 4.6 mph - N/A   Overcast
10:53 PM 71.1 °F - 66.9 °F 87% 30.09 in 10.0 mi East 5.8 mph - N/A   Overcast
11:53 PM 71.1 °F - 68.0 °F 90% 30.08 in 10.0 mi East 5.8 mph - N/A   Overcast